This is the latest recevied weather packets stored in our database for station/object K4PAD. If no packets are shown the sender has not sent any weather packets the latest 10 day(s).
| Time | Temp. | Humidity | Pressure | Rain* | Wind** | Luminosity | Snow |
|---|---|---|---|---|---|---|---|
| 1787759942 | 30.56° C | 70% | 1019.3 hPa | 0 mm | - | 605 W/m² | - |
| 1787759632 | 30° C | 72% | 1019 hPa | 0 mm | - | 557 W/m² | - |
| 1787759327 | 29.44° C | 72% | 1019.4 hPa | 0 mm | - | 586 W/m² | - |
| 1787759022 | 29.44° C | 73% | 1019.4 hPa | 0 mm | - | 474 W/m² | - |
| 1787758715 | 29.44° C | 76% | 1019.1 hPa | 0 mm | - | 464 W/m² | - |
| 1787758411 | 28.89° C | 79% | 1019.4 hPa | 0 mm | - | 409 W/m² | - |
| 1787758109 | 28.89° C | 78% | 1019.2 hPa | 0 mm | - | 394 W/m² | - |
| 1787757801 | 28.89° C | 83% | 1019.2 hPa | 0 mm | - | 408 W/m² | - |
| 1787757501 | 28.33° C | 82% | 1019.2 hPa | 0 mm | - | 379 W/m² | - |
| 1787757195 | 28.33° C | 83% | 1019.1 hPa | 0 mm | - | 375 W/m² | - |
| 1787756894 | 28.33° C | 85% | 1019.2 hPa | 0 mm | - | 369 W/m² | - |
| 1787756591 | 27.78° C | 86% | 1019.3 hPa | 0 mm | - | 372 W/m² | - |
| 1787756289 | 27.78° C | 88% | 1019.1 hPa | 0 mm | - | 407 W/m² | - |
| 1787755984 | 27.78° C | 87% | 1019.1 hPa | 0 mm | - | 389 W/m² | - |
| 1787755684 | 27.78° C | 88% | 1019.1 hPa | 0 mm | - | 380 W/m² | - |
| 1787755379 | 27.78° C | 89% | 1019.1 hPa | 0 mm | - | 351 W/m² | - |
| 1787755078 | 27.78° C | 91% | 1018.8 hPa | 0 mm | - | 372 W/m² | - |
| 1787754778 | 27.22° C | 93% | 1018.9 hPa | 0 mm | - | 466 W/m² | - |
| 1787754476 | 26.67° C | 95% | 1019 hPa | 0 mm | - | 663 W/m² | - |
| 1787754170 | 26.11° C | 96% | 1018.7 hPa | 0 mm | - | 350 W/m² | - |
* Rain latest hour (hover to see other rain measurements)
** Current wind speed in m/s (hover to see current wind gust speed)